Flag for Mexico Weather past 2 weeks in Mexico City, Federal District, Mexico

Now
66 °F

Sunny.


Feels Like: 66 °F
Forecast: 47 / 72 °F
Wind: 8 mph from East

Location: Mexico City / Licenci

Current Time: Mar 6, 2015 at 12:16:10 PM

Latest Report: Mar 6, 2015 at 11:52 AM


Visibility: 5 mi

Pressure: 29.92 "Hg

Humidity: 43%

Dew point: 43 °F

Location of Mexico CityLocation

Historic Weather in Mexico City — Graph

°F

Mexico City temperature yesterday

Maximum temperature yesterday: 77 °F (at 3:45 PM)
Minimum temperature yesterday: 55 °F (at 6:21 AM)
Average temperature yesterday: 64 °F

Past Weeks' High & Low Weather Summary

 TemperatureHumidityPressure
High82 °F (Feb 23, 1:49 PM)77% (Feb 21, 6:50 AM)30.43 "Hg (Feb 21, 6:50 AM)
Low48 °F (Feb 24, 6:44 AM)7% (Feb 23, 3:48 PM)29.53 "Hg (Feb 26, 2:49 PM)
Average64 °F41%30.16 "Hg
* Reported Feb 19 11:29 AM — Mar 6 11:14 AM, Mexico City, Weather by CustomWeather, © 2015

Note: Actual official high and low records may vary slightly from our data, if they occured in-between our weather recording intervals... More about our weather records

Advertising

Mexico City weather history for previous 24 hours

 ConditionsComfort  
Time TempWeatherWind HumidityBarometerVisibility
11:14 AM
Fri, Mar 6
64 °FSleet. Cloudy.N/A49%30.40 "HgN/A
10:42 AM61 °FSunny.3 mph52%30.42 "Hg5 mi
9:45 AM59 °FPassing clouds.5 mph55%30.42 "Hg5 mi
9:22 AM57 °FScattered clouds.5 mph59%30.41 "Hg5 mi
8:48 AM55 °FPartly sunny.7 mph63%30.00 "Hg5 mi
8:23 AM55 °FPartly sunny.8 mph63%30.40 "Hg5 mi
7:44 AM54 °FMore clouds than sun.6 mph67%30.39 "Hg6 mi
7:25 AM54 °FMore clouds than sun.7 mph67%30.38 "Hg6 mi
6:46 AM54 °FMostly cloudy.8 mph67%30.37 "Hg8 mi
6:20 AM54 °FMostly cloudy.5 mph67%30.37 "Hg8 mi
3:45 AM52 °FMostly cloudy.6 mph72%30.36 "Hg8 mi
2:50 AM52 °FPassing clouds.8 mph72%29.87 "Hg8 mi
1:47 AM54 °FPassing clouds.7 mph67%30.38 "Hg9 mi
12:48 AM54 °FPassing clouds.13 mph67%30.39 "Hg10 mi
11:42 PM
Thu, Mar 5
55 °FPassing clouds.7 mph67%29.90 "Hg10 mi
10:47 PM55 °FPassing clouds.15 mph67%30.38 "Hg10 mi
9:44 PM57 °FClear.13 mph63%30.37 "Hg8 mi
8:43 PM59 °FPassing clouds.17 mph63%29.89 "Hg8 mi
7:58 PM61 °FClear.17 mph55%30.30 "Hg8 mi
5:49 PM72 °FScattered clouds.16 mph38%29.69 "Hg6 mi
4:50 PM73 °FScattered clouds.15 mph36%30.20 "Hg6 mi
3:45 PM77 °FPassing clouds.17 mph28%30.20 "Hg7 mi
2:47 PM75 °FPassing clouds.3 mph25%29.65 "Hg7 mi
1:47 PM75 °FPassing clouds.17 mph29%30.25 "Hg8 mi
12:41 PM73 °FPassing clouds.13 mph29%30.28 "Hg8 mi
Weather by CustomWeather, © 2015

See weather overviewHow to use our weather pages